User: anonymous   Login
Location: Unspecified
(0.0000°N, 0.0000°E)
Time: 16:24:05
(UTC+00:00)
Language:

MOZHAYETS 4 - Orbit

View from above orbital plane
View from above orbital plane
View from above satellite
View from above satellite

Ground track
Ground track

The orbit data is extracted from the following two-line orbital elements,

1 27939U 03042A   20227.57211846  .00000153  00000-0  36050-4 0  9993
2 27939  98.0984   1.6455 0013337 164.6815 195.4803 14.66878282902530
Epoch (UTC): 14 August 2020 13:43:51
Eccentricity: 0.0013337
inclination: 98.0984°
perigee height: 661 km
apogee height: 680 km
right ascension of ascending node: 1.6455°
argument of perigee: 164.6815°
revolutions per day: 14.66878282
mean anomaly at epoch: 195.4803°
orbit number at epoch: 90253

The dashed part of the orbit path shows where the satellite is in the earth's shadow,  

DLR